Regional Weather Roundup
Issued by NWS Green Bay, WI

Home | Current Version | Previous Version | Graphics & Text | Print | Product List | Glossary Off
Versions: 1 2 3 4 5 6 7 8 9 10 11 12 13 14 15 16 17 18 19 20 21 22 23 24 25 26 27 28 29 30 31 32 33 34 35 36 37 38 39 40 41 42 43 44 45 46 47 48 49 50

313
ASUS43 KGRB 100411
RWRGRB

NORTH-CENTRAL AND NORTHEAST WISCONSIN REGIONAL WEATHER ROUNDUP
NATIONAL WEATHER SERVICE GREEN BAY WI
1000 PM CST TUE FEB 09 2016

WIZ005-009-010>012-018-019-100500-
NORTH CENTRAL WISCONSIN

CITY           SKY/WX    TMP DP  RH WIND       PRES   REMARKS
IRONWOOD       CLOUDY     9   1  72 N12       29.97S WCI  -6
MANITOWISH WTR LGT SNOW   7   2  82 N8        29.93S WCI  -6
ARBOR VITAE    CLOUDY     9   3  75 N16G22    29.91F HAZE    WCI  -8
EAGLE RIVER    CLOUDY     8  -1  67 N14G20    29.89F WCI  -9
LAND O LAKES   LGT SNOW   8   2  79 N14       29.90F WCI  -9
RHINELANDER    LGT SNOW   8   0  69 N7G20     29.90F WCI  -3
PHILLIPS       CLOUDY     6   0  75 NW8       29.96S WCI  -7
ANTIGO         CLOUDY     8   0  69 N13       29.90S WCI  -7
TOMAHAWK       CLOUDY     8   1  76 NW8       29.94S WCI  -5
MERRILL        CLOUDY     9   1  70 NW8       29.95S WCI  -3
$$

WIZ013-073-100500-
NORTHEAST WISCONSIN

CITY           SKY/WX    TMP DP  RH WIND       PRES   REMARKS
IRON MOUNTAIN  PTCLDY     8   0  69 NW13G23   29.88R WCI  -8
MARINETTE      CLOUDY    12   1  62 NW16G22   29.90R WCI  -4
OCONTO         CLOUDY    13   2  61 NW8G18    29.93R WCI   2
$$

WIZ017-030-035>037-045-100500-
CENTRAL WISCONSIN

CITY           SKY/WX    TMP DP  RH WIND       PRES   REMARKS
MEDFORD        CLOUDY     8   0  69 N13       29.95S WCI  -8
WAUSAU         CLOUDY    11   0  61 N12       29.94S WCI  -3
MOSINEE        CLOUDY     9   1  72 NW13      29.96S WCI  -7
MARSHFIELD     CLOUDY    10  -3  55 N14       29.96F WCI  -6
WISC RAPIDS    CLOUDY    10  -1  61 N8        30.00F WCI  -2
STEVENS POINT  CLOUDY     9  -1  64 NW8G16    29.97F WCI  -4
WAUPACA        CLOUDY    14   2  58 NW9G17    29.98R WCI   2
SHAWANO        CLOUDY    15   1  53 NW9G21    29.95S WCI   3
CLINTONVILLE   CLOUDY    14   0  52 N9        29.95S WCI   2
WAUTOMA        CLOUDY    12  -1  56 N12G23    29.99S WCI  -2
$$

WIZ038-039-048-051-100500-
FOX VALLEY

CITY           SKY/WX    TMP DP  RH WIND       PRES   REMARKS
NWS GREEN BAY  CLOUDY    13   3  64 NW13      29.93F WCI  -2
APPLETON       MOCLDY    12  -2  52 NW14      29.92S WCI  -3
OSHKOSH        CLOUDY    13   3  64 NW14G26   29.94S WCI  -2
FOND DU LAC    CLOUDY    13   5  70 NW13      29.94S WCI  -2
$$

WIZ022-050-052-100500-
EAST CENTRAL WISCONSIN

CITY           SKY/WX    TMP DP  RH WIND       PRES   REMARKS
EPHRAIM        LGT SNOW  13   6  73 NW17G26   29.85S WCI  -4
STURGEON BAY   CLOUDY    12   3  67 NW15G22   29.90S WCI  -4
MANITOWOC      FLURRIES  13   8  81 NW17      29.91F WCI  -4
SHEBOYGAN      FLURRIES  13   5  70 NW15G24   29.91S WCI  -3
$$

LMZ563-521-522-541>543-100500-
LAKESHORE

STATION/POSITION TIME  TEMP    WIND        PRES    VSBY  WAVE
                       AIR SEA DIR/SP/G                  HT/PER
                 (UTC) (F)     (DEG/KT/KT) (MB)    (MI)  (FT/S)
SHEBOYGAN LKSHOR 0400   14     320/ 15/ 17 1014.4S
KEWAUNEE LKSHORE 0300   13     360/ 13/ 18 1011.9F
ALGOMA MARINA    0311          320/ 11/ 17   N/A
CHAMBERS ISLAND  0300   13     300/ 13/ 20 1012.2S
MENOMINEE LKSHOR 0300   13     310/ 14     1011.5F
$$




USA.gov is the U.S. government's official web portal to all federal, state and local government web resources and services.